{"data":{"norad_id":66265,"intl_designator":"2025-247A","name":"STARLINK-35801","alt_names":[],"object_type":"PAYLOAD","status":"ACTIVE","operator":null,"country":"US","launch_date":"2025-10-31","launch_site_code":"AFWTR","launch_vehicle":null,"mission":null,"orbit_class":"UNKNOWN","rcs_meters":null,"size_class":null,"mass_kg":null,"dimensions":null,"purposes":["comms"],"wikipedia_slug":null,"has_3d_model":false,"image_url":null,"decayed_at":null,"tle_current":{"epoch":"2026-05-25T03:08:29.707296Z","epoch_age_seconds":67025,"freshness":"FRESH","line1":"1 66265U 25247A   26145.13089939  .00011302  00000+0  34510-3 0  9997","line2":"2 66265  53.1589 195.2182 0001243  81.9303 278.1841 15.34402473 32751","mean_motion":15.34402473,"eccentricity":0.0001243,"inclination_deg":53.1589,"raan_deg":195.2182,"arg_perigee_deg":81.9303,"mean_anomaly_deg":278.1841,"bstar":0.0003451,"rev_number":3275,"period_min":93.847606826687,"perigee_km":461.8455744116,"apogee_km":463.54620546804,"semimajor_km":6840.8328899398,"source":"CELESTRAK","updated_at":"2026-05-25T13:38:21.140145Z"}}}